Location: Trani
(41.2830°N, 16.4170°E)
Time: 02:50:03
(UTC+02:00)

ISS - Pass Details

Date: 12 May 2021
Orbit: 417 x 422 km, 51.6° (Epoch: 14 June)

Event Time Altitude Azimuth Distance (km) Brightness Sun altitude
Exits shadow 02:50:33 - 314° (NW) 1,922 -0.3 -24.4°
Reaches altitude 10° 02:52:01 10° 330° (NNW) 1,508 -0.6 -24.3°
Maximum altitude 02:54:04 15° 7° (N) 1,240 -0.6 -24.1°
Drops below altitude 10° 02:56:06 10° 44° (NE) 1,508 0.1 -23.8°
Sets 02:58:54 0° 69° (ENE) 2,373 0.9 -23.6°
